Retour au catalogue

STARLINK-37948

ActifCommunicationsSSO
NORAD 69670·PAYLOAD·🇺🇸 United States

Lancé Jun 21, 2026 depuis Vandenberg Space Force Base

Loading…

Prochains Passages (prochaines 24 heures)

TLE

FraisSource: CelesTrak SupGP

Époque: Sep 15, 2026, 03:11 UTC

1 69670C 26143X   26258.13312500 -.00006101  00000+0 -18936-3 0  2589
2 69670  97.2835 301.4200 0000845  94.7047 183.0838 15.33446373    13

Suivez STARLINK-37948 en temps réel avec AllMySat

Download on the App Store